Location: Poughquag
(41.6090°N, 73.6820°W)
Time: 10:37:56
(UTC-04:00)

A-11 Canister half - Visible Passes

Search period start: 09 August 2020 00:00
Search period end: 19 August 2020 00:00
Orbit: 1527 x 1682 km, 47.3° (Epoch: 08 August)

Date Brightness Start Highest point End Pass type
(mag) Time Alt. Az. Time Alt. Az. Time Alt. Az.
09 Aug 10.9 21:31:33 10° W 21:36:41 16° WSW 21:41:45 10° SSW visible
10 Aug 10.9 21:09:31 10° W 21:15:08 17° WSW 21:20:41 10° SSW visible
11 Aug 10.9 20:47:31 10° W 20:53:35 18° SW 20:59:33 10° SSW visible
12 Aug 10.9 20:25:34 10° W 20:32:01 20° SW 20:38:22 10° SSW visible
